Location: Cantaing
(50.1487°N, 3.1675°E)
Time: 14:28:55
(UTC+00:00)

SJ 16-02 - Visible Passes

Search period start: 19 April 2026 00:00
Search period end: 29 April 2026 00:00
Orbit: 582 x 593 km, 75.0° (Epoch: 19 April)

Date Brightness Start Highest point End Pass type
(mag) Time Alt. Az. Time Alt. Az. Time Alt. Az.
19 Apr 3.1 21:14:29 10° N 21:17:37 19° NE 21:18:28 18° ENE visible
19 Apr 2.2 22:51:52 10° NNW 22:54:58 43° NW 22:54:58 43° NW visible
20 Apr 2.6 21:21:32 10° N 21:25:11 26° NE 21:25:48 25° ENE visible
20 Apr 2.6 22:59:24 10° NW 23:02:18 33° WNW 23:02:18 33° WNW visible
21 Apr 2.1 21:28:42 10° N 21:32:42 37° ENE 21:33:10 36° ENE visible
21 Apr 3.0 23:07:04 10° NW 23:09:39 24° WNW 23:09:39 24° WNW visible
22 Apr 1.5 21:35:57 10° NNW 21:40:10 55° ENE 21:40:32 53° E visible
22 Apr 3.5 23:14:56 10° NW 23:17:01 17° W 23:17:01 17° W visible
23 Apr 3.5 20:06:37 10° NNE 20:08:45 13° NE 20:10:52 10° ENE visible
23 Apr 1.1 21:43:16 10° NNW 21:47:34 82° ENE 21:47:55 73° SE visible
23 Apr 3.8 23:23:20 10° WNW 23:24:25 12° W 23:24:25 12° W visible
24 Apr 3.1 20:13:24 10° N 20:16:23 18° NE 20:18:50 12° E visible
24 Apr 1.3 21:50:41 10° NNW 21:54:55 66° WSW 21:55:20 61° SW visible
25 Apr 2.7 20:20:25 10° N 20:23:57 25° NE 20:26:16 16° E visible
25 Apr 1.9 21:58:10 10° NW 22:02:13 43° WSW 22:02:47 40° SW visible
26 Apr 2.2 20:27:33 10° N 20:31:28 34° ENE 20:33:44 20° ESE visible
26 Apr 2.6 22:05:47 10° NW 22:09:28 29° WSW 22:10:14 27° WSW visible
27 Apr 1.6 20:34:46 10° NNW 20:38:56 50° ENE 20:41:13 24° SE visible
27 Apr 3.2 22:13:35 10° NW 22:16:39 19° W 22:17:43 18° WSW visible
28 Apr 1.2 20:42:04 10° NNW 20:46:20 75° ENE 20:48:43 25° SSE visible
28 Apr 3.7 22:21:48 10° WNW 22:23:47 13° W 22:25:13 11° WSW visible
